Flag for Venezuela Weather past 2 weeks in Caracas, Venezuela

Now
79 °F

Passing clouds.


Feels Like: 82 °F
Forecast: 65 / 84 °F
Wind: No wind

Location: Caracas / Maiquetia Aerop. Intl. Simon Bolivar

Current Time: Jul 24, 2014 at 9:07:02 PM

Latest Report: Jul 24, 2014 at 8:30 PM


Visibility: N/A

Pressure: 29.89 "Hg

Humidity: 84%

Dew point: 73 °F

Location of CaracasLocation

Historic Weather in Caracas — Graph

°F

Caracas temperature yesterday

Maximum temperature yesterday: 88 °F (at 11:30 AM)
Minimum temperature yesterday: 75 °F (at 3:30 AM)
Average temperature yesterday: 81 °F

Past Weeks' High & Low Weather Summary

 TemperatureHumidityPressure
High90 °F (Jul 15, 2:30 PM)100% (Jul 14, 7:30 AM)30.04 "Hg (Jul 14, 7:30 AM)
Low73 °F (Jul 15, 10:30 PM)55% (Jul 14, 1:30 PM)29.86 "Hg (Jul 24, 2:30 PM)
Average80 °F75%29.97 "Hg
* Reported Jul 9 7:30 PM — Jul 24 7:30 PM, Caracas, Weather by CustomWeather, © 2014

Note: Actual official high and low records may vary slightly from our data, if they occured in-between our weather recording intervals... More about our weather records

Advertising

Caracas weather history for previous 24 hours

 ConditionsComfort  
Time TempWeatherWind HumidityBarometerVisibility
7:30 PM
Jul 24
79 °FPassing clouds.1 mph84%29.86 "HgN/A
6:30 PM81 °FPassing clouds.3 mph79%29.86 "HgN/A
5:30 PM82 °FPassing clouds.2 mph74%29.86 "HgN/A
4:30 PM86 °FPassing clouds.3 mph62%29.86 "HgN/A
3:30 PM86 °FPassing clouds.5 mph70%29.86 "HgN/A
2:30 PM88 °FPassing clouds.3 mph62%29.86 "HgN/A
1:30 PM88 °FPassing clouds.3 mph62%29.89 "HgN/A
12:30 PM90 °FPassing clouds.6 mph55%29.89 "HgN/A
11:30 AM86 °FPassing clouds.6 mph59%29.92 "HgN/A
10:30 AM86 °FPassing clouds.7 mph62%29.89 "HgN/A
9:30 AM84 °FPassing clouds.2 mph70%29.92 "HgN/A
8:30 AM84 °FPassing clouds.1 mph66%29.89 "HgN/A
7:30 AM81 °FPassing clouds.No wind74%29.92 "HgN/A
6:30 AM77 °FPassing clouds.No wind79%29.92 "HgN/A
5:30 AM77 °FPassing clouds.No wind74%29.89 "HgN/A
4:30 AM77 °FPassing clouds.No wind74%29.89 "HgN/A
3:30 AM77 °FPassing clouds.No wind79%29.92 "HgN/A
2:30 AM77 °FPassing clouds.No wind79%29.92 "HgN/A
1:30 AM77 °FPassing clouds.No wind79%29.92 "HgN/A
12:30 AM77 °FPassing clouds.No wind79%29.95 "HgN/A
11:30 PM
Jul 23
79 °FPassing clouds.No wind79%29.95 "HgN/A
10:30 PM79 °FPassing clouds.2 mph79%29.95 "HgN/A
9:30 PM79 °FPassing clouds.1 mph84%29.95 "HgN/A
Weather by CustomWeather, © 2014

See weather overviewHow to use our weather pages